Asheville, NC

5:07 PM EDT on July 24, 2017 (GMT -0400)
Asheville Regional

Weather History for KAVL - April, 2008

Change the Weather History Date:

Thursday, April 24, 2008

  Actual Average Record
Temperature  
Mean Temperature 61 °F 58 °F  
Max Temperature 76 °F 70 °F 89 °F (1925)
Min Temperature 46 °F 45 °F 26 °F (1893)
Degree Days  
Heating Degree Days 4 8  
Month to date heating degree days 231 259  
Since 1 July heating degree days 3793 4031  
Cooling Degree Days 0 0  
Month to date cooling degree days 0 0  
Year to date cooling degree days 0 1  
Growing Degree Days 10 (Base 50)    
Moisture  
Dew Point 48 °F    
Average Humidity 66    
Maximum Humidity 100    
Minimum Humidity 31    
Precipitation  
Precipitation 0.00 in 0.11 in 1.73 in (1878)
Month to date precipitation 1.73 2.65  
Year to date precipitation 12.59 13.91  
Snow  
Snow 0.00 in 0.00 in 0.10 in (2005)
Month to date snowfall 0.0 0.7  
Since 1 July snowfall 3.8 9.9  
Snow Depth -    
Sea Level Pressure  
Sea Level Pressure 30.18 in    
Wind  
Wind Speed 3 mph (SSE)    
Max Wind Speed 15 mph    
Max Gust Speed 17 mph    
Visibility 8 miles    
Events      
T = Trace of Precipitation, MM = Missing Value Source: NWS Daily Summary

Daily Weather History Graph

Daily Weather History Graph

Search for Another Location

Airport or City:

Trip Planner

Search our weather history database for the weather conditions in past years. The results will help you decide how hot, cold, wet, or windy it might be!

Date:

Astronomy

Apr. 24, 2008 Rise Set
Actual Time 6:45 AM EDT 8:10 PM EDT
Civil Twilight 6:19 AM EDT 8:37 PM EDT
Nautical Twilight 5:47 AM EDT 9:09 PM EDT
Astronomical Twilight 5:13 AM EDT 9:43 PM EDT
Moon No Moon Rise 9:04 AM EDT
Length of Visible Light 14h 18m
Length of Day
13h 25m
Waning Gibbous, 84% of the Moon is Illuminated
Apr 24
Waning Gibbous
Apr 28
Last Quarter
May 5
New
May 11
First Quarter
May 19
Full

Hourly Weather History & Observations

Time (EDT) Temp. Windchill Dew Point Humidity Pressure Visibility Wind Dir Wind Speed Gust Speed Precip Events Conditions
12:54 AM 55.0 °F - 51.1 °F 86% 30.19 in 10.0 mi Calm Calm - N/A   Clear
1:54 AM 55.0 °F - 52.0 °F 89% 30.18 in 10.0 mi Calm Calm - N/A   Clear
2:54 AM 52.0 °F - 51.1 °F 97% 30.18 in 9.0 mi Calm Calm - N/A   Clear
3:54 AM 50.0 °F - 48.9 °F 96% 30.17 in 9.0 mi Calm Calm - N/A   Clear
4:42 AM 48.2 °F - 48.2 °F 100% 30.23 in 2.5 mi Calm Calm - N/A   Clear
4:50 AM 48.2 °F - 48.2 °F 100% 30.23 in 6.0 mi Calm Calm - N/A   Clear
4:54 AM 48.9 °F - 48.0 °F 97% 30.19 in 7.0 mi Calm Calm - N/A   Clear
5:54 AM 48.9 °F - 46.9 °F 93% 30.21 in 8.0 mi Calm Calm - N/A   Clear
6:39 AM 46.4 °F 45.2 °F 46.4 °F 100% 30.26 in 1.5 mi SW 3.5 mph - N/A   Clear
6:46 AM 46.4 °F - 44.6 °F 93% 30.26 in 1.2 mi Calm Calm - N/A   Clear
6:50 AM 46.4 °F - 44.6 °F 93% 30.26 in 2.5 mi Calm Calm - N/A   Clear
6:54 AM 46.9 °F - 45.0 °F 93% 30.22 in 6.0 mi Calm Calm - N/A   Clear
7:54 AM 51.8 °F - 50.0 °F 94% 30.26 in 7.0 mi Calm Calm - N/A   Clear
8:54 AM 55.9 °F - 52.0 °F 87% 30.22 in 9.0 mi Calm Calm - N/A   Clear
9:54 AM 61.0 °F - 53.1 °F 75% 30.21 in 10.0 mi Calm Calm - N/A   Clear
10:54 AM 64.9 °F - 52.0 °F 63% 30.20 in 10.0 mi ESE 4.6 mph - N/A   Clear
11:54 AM 70.0 °F - 51.1 °F 51% 30.20 in 10.0 mi South 9.2 mph - N/A   Clear
12:54 PM 72.0 °F - 48.9 °F 44% 30.19 in 10.0 mi SE 11.5 mph - N/A   Partly Cloudy
1:54 PM 73.9 °F - 46.0 °F 37% 30.17 in 10.0 mi Variable 5.8 mph - N/A   Clear
2:54 PM 75.9 °F - 46.9 °F 36% 30.15 in 10.0 mi SSE 9.2 mph 17.3 mph N/A   Clear
3:54 PM 75.9 °F - 46.9 °F 36% 30.13 in 10.0 mi South 8.1 mph - N/A   Clear
4:54 PM 75.0 °F - 43.0 °F 32% 30.12 in 10.0 mi Variable 6.9 mph - N/A   Clear
5:54 PM 73.9 °F - 43.0 °F 33% 30.11 in 10.0 mi SSE 6.9 mph - N/A   Clear
6:54 PM 73.9 °F - 46.0 °F 37% 30.11 in 10.0 mi SE 6.9 mph - N/A   Clear
7:54 PM 71.1 °F - 46.9 °F 42% 30.12 in 10.0 mi SE 5.8 mph - N/A   Clear
8:54 PM 66.9 °F - 48.0 °F 51% 30.12 in 10.0 mi South 4.6 mph - N/A   Clear
9:54 PM 63.0 °F - 48.9 °F 60% 30.14 in 10.0 mi Calm Calm - N/A   Clear
10:54 PM 61.0 °F - 50.0 °F 67% 30.14 in 10.0 mi Calm Calm - N/A   Clear
11:54 PM 60.1 °F - 50.0 °F 69% 30.13 in 10.0 mi Calm Calm - N/A   Clear